Location: Unspecified
(43.8044°N, 11.0278°E)
Time: 17:20:25
(UTC+02:00)

Cosmos 2058 - Visible Passes

Search period start: 24 July 2014 00:00
Search period end: 03 August 2014 00:00
Orbit: 572 x 593 km, 82.5° (Epoch: 23 July)

Date Brightness Start Highest point End Pass type
(mag) Time Alt. Az. Time Alt. Az. Time Alt. Az.
24 Jul 4.0 04:30:29 10° N 04:34:37 48° ENE 04:38:41 10° SSE visible
25 Jul 3.3 04:36:18 10° N 04:40:32 69° E 04:44:43 10° SSE visible
26 Jul 2.9 04:42:11 10° N 04:46:26 83° W 04:50:38 10° S visible
27 Jul 5.8 03:12:47 10° NE 03:14:47 13° ENE 03:16:45 10° E visible
27 Jul 3.0 04:48:08 10° NNW 04:52:18 58° W 04:56:25 10° S visible
28 Jul 5.6 03:17:57 10° NNE 03:20:50 18° ENE 03:23:42 10° ESE visible
28 Jul 3.4 04:54:10 10° NNW 04:58:08 40° W 05:02:04 10° SSW visible
29 Jul 5.1 03:23:24 10° NNE 03:26:51 24° ENE 03:30:16 10° SE visible
29 Jul 3.9 05:00:18 10° NNW 05:03:57 29° W 05:07:33 10° SSW visible
30 Jul 4.5 03:29:00 10° N 03:32:51 33° ENE 03:36:24 11° SE visible
30 Jul 4.4 05:06:34 10° NW 05:09:44 21° W 05:12:44 11° SW visible
31 Jul 3.9 03:34:43 10° N 03:38:48 46° ENE 03:41:33 19° SE visible
31 Jul 4.7 05:13:04 10° NW 05:15:29 15° W 05:17:52 10° WSW visible
01 Aug 3.2 03:40:31 10° N 03:44:44 66° E 03:46:47 29° SSE visible
01 Aug 5.0 05:20:19 10° WNW 05:21:12 11° W 05:22:04 10° W visible
02 Aug 2.8 03:46:23 10° N 03:50:38 87° W 03:52:04 41° S visible
